Regional Weather Roundup
Issued by NWS Goodland, KS

Home | Current Version | Previous Version | Graphics & Text | Print | Product List | Glossary On
Versions: 1 2 3 4 5 6 7 8 9 10 11 12 13 14 15 16 17 18 19 20 21 22 23 24 25 26 27 28 29 30 31 32 33 34 35 36 37 38 39 40 41 42 43 44 45 46 47 48 49 50
000
ASUS43 KGLD 300808
RWRGLD

GOODLAND FORECAST AREA HOURLY WEATHER ROUNDUP
NATIONAL WEATHER SERVICE GOODLAND KS
200 AM MDT TUE SEP 30 2014

...OFFICIAL OBSERVATIONS...

CITY           SKY/WX    TMP DP  RH WIND       PRES   REMARKS
GOODLAND KS    CLEAR     52  47  83 SW8       29.88S
HILL CITY KS   CLOUDY    65  57  75 S8        29.83F
IMPERIAL NEB   PTCLDY    55  50  83 W14G22    29.78R
MCCOOK NEB     CLEAR     61  57  87 S20G29    29.78F
AKRON CO       PTCLDY    47  46  97 SW8       29.83S
BURLINGTON CO  PTCLDY    50  44  80 W7        29.88F
LIMON CO       PTCLDY    43  41  93 CALM      29.90F
$$

...UNOFFICIAL OBSERVATIONS...

CITY           SKY/WX    TMP DP  RH WIND       PRES   REMARKS
COLBY KS       CLOUDY    61  61 100 SW20G33   29.86
GOVE KS          N/A     62  32  32 MISG        N/A
NORTON KS      PTCLDY    63  54  72 SE9       29.80
SHARON SPRINGS   N/A     56  54  93 W12G20      N/A
WAKEENEY KS      N/A     65  55  68 MISG        N/A
KIT CARSON CO    N/A     50  44  79 MISG        N/A
YUMA CO          N/A     50  49  97 W12G18      N/A
$$


USA.gov is the U.S. government's official web portal to all federal, state and local government web resources and services.